sat.trackr.live / text

‹ back to catalog

STARLINK-37620

NORAD 69214 · 2026-115D

PAYLOAD ACTIVE UNKNOWN

§ Identity

Operator
Country
US
Launch date
2026-05-26
Launch site
AFWTR
Launch vehicle
Mass (kg)
RCS (m²)

Purposes: comms

External: N2YO · Heavens-Above · Gunter

§ Orbital elements

Epoch: 2026-09-20T02:04:33.155904Z

Period
93.91 min
Inclination
97.2818°
Eccentricity
0.0001955
Mean motion
15.33454026 rev/d
Perigee alt
464.2 km
Apogee alt
466.9 km
Semi-major
6,843.7 km
B*
4.3281e-4
RAAN
279.1304°
Arg perigee
90.9089°
Mean anomaly
269.2377°
Rev number
1,922

§ Raw data

STARLINK-376201 69214U 26115D   26263.08649486  .00013928  00000+0  43281-3 0  99942 69214  97.2818 279.1304 0001955  90.9089 269.2377 15.33454026 19223

JSON: /api/v1/satellites/69214 · /tle

For live sub-satellite position, see the globe view (requires WebGL).

§ Visibility from observer

Set your observer location to see the next 7 days of passes ≥ 10°. The values pass through the URL so the page stays shareable.

No JS? Fill the form by hand. The geolocation button needs JavaScript.